Hourly Weather Bolshoe Ermakovo

Today, 30 July, Friday

Time Temperature Precipitation Wind Pressure Humidity
00:00 +17°C° 0.3 mm 5 mps 744 mmHg 93%
01:00 +18°C° 0.2 mm 4 mps 744 mmHg 93%
02:00 +18°C° 0.2 mm 4 mps 744 mmHg 93%
03:00 +17°C° 0.2 mm 4 mps 744 mmHg 94%
04:00 +18°C° 0 mm 4 mps 744 mmHg 93%
05:00 +19°C° 0 mm 4 mps 744 mmHg 92%
06:00 +19°C° 0 mm 4 mps 744 mmHg 92%
07:00 +21°C° 0 mm 4 mps 744 mmHg 85%
08:00 +22°C° 0 mm 5 mps 744 mmHg 77%
09:00 +25°C° 0 mm 5 mps 744 mmHg 70%
10:00 +26°C° 0 mm 5 mps 745 mmHg 64%
11:00 +27°C° 0 mm 5 mps 745 mmHg 58%
12:00 +28°C° 0 mm 5 mps 745 mmHg 52%
13:00 +29°C° 0 mm 5 mps 745 mmHg 48%
14:00 +30°C° 0 mm 5 mps 745 mmHg 44%
15:00 +30°C° 0 mm 5 mps 745 mmHg 41%
16:00 +30°C° 0 mm 4 mps 744 mmHg 44%
17:00 +29°C° 0 mm 3 mps 744 mmHg 47%
18:00 +28°C° 0 mm 2 mps 744 mmHg 50%
19:00 +27°C° 0 mm 2 mps 744 mmHg 55%
20:00 +25°C° 0 mm 1 mps 745 mmHg 59%
21:00 +23°C° 0 mm 1 mps 745 mmHg 64%
22:00 +23°C° 0 mm 1 mps 745 mmHg 63%
23:00 +23°C° 0 mm 2 mps 745 mmHg 62%

Tomorrow, 31 July, Saturday

Time Temperature Precipitation Wind Pressure Humidity
00:00 +23°C° 0 mm 2 mps 744 mmHg 61%
01:00 +23°C° 0.1 mm 2 mps 744 mmHg 68%
02:00 +21°C° 0.1 mm 2 mps 744 mmHg 75%
03:00 +20°C° 0.1 mm 2 mps 744 mmHg 82%
04:00 +20°C° 0.1 mm 2 mps 744 mmHg 83%
05:00 +21°C° 0.1 mm 3 mps 744 mmHg 84%
06:00 +21°C° 0.1 mm 3 mps 744 mmHg 85%
07:00 +24°C° 0 mm 3 mps 744 mmHg 75%
08:00 +26°C° 0 mm 4 mps 744 mmHg 66%
09:00 +28°C° 0 mm 5 mps 744 mmHg 56%
10:00 +29°C° 0 mm 5 mps 744 mmHg 52%
11:00 +32°C° 0 mm 6 mps 743 mmHg 48%
12:00 +33°C° 0 mm 6 mps 743 mmHg 44%
13:00 +33°C° 0 mm 6 mps 743 mmHg 42%
14:00 +33°C° 0 mm 6 mps 743 mmHg 40%
15:00 +34°C° 0 mm 6 mps 743 mmHg 38%
16:00 +32°C° 0 mm 6 mps 743 mmHg 43%
17:00 +30°C° 0 mm 6 mps 744 mmHg 48%
18:00 +29°C° 0 mm 6 mps 744 mmHg 54%
19:00 +27°C° 0 mm 5 mps 745 mmHg 60%
20:00 +25°C° 0 mm 3 mps 745 mmHg 65%
21:00 +23°C° 0 mm 2 mps 746 mmHg 71%
22:00 +23°C° 0 mm 2 mps 746 mmHg 71%
23:00 +21°C° 0 mm 2 mps 746 mmHg 71%

Day after tomorrow, 1 August, Sunday

Time Temperature Precipitation Wind Pressure Humidity
00:00 +20°C° 0 mm 3 mps 746 mmHg 71%
01:00 +20°C° 0 mm 3 mps 746 mmHg 71%
02:00 +19°C° 0 mm 3 mps 747 mmHg 72%
03:00 +18°C° 0 mm 3 mps 747 mmHg 73%
04:00 +19°C° 0 mm 3 mps 747 mmHg 70%
05:00 +20°C° 0 mm 3 mps 748 mmHg 67%
06:00 +21°C° 0 mm 3 mps 748 mmHg 63%
07:00 +24°C° 0 mm 3 mps 748 mmHg 55%
08:00 +26°C° 0 mm 4 mps 748 mmHg 47%
09:00 +28°C° 0 mm 4 mps 749 mmHg 39%
10:00 +29°C° 0 mm 5 mps 749 mmHg 36%
11:00 +30°C° 0 mm 5 mps 749 mmHg 34%
12:00 +32°C° 0 mm 6 mps 749 mmHg 32%
13:00 +32°C° 0 mm 6 mps 749 mmHg 32%
14:00 +32°C° 0 mm 6 mps 749 mmHg 32%
15:00 +32°C° 0 mm 6 mps 749 mmHg 32%
16:00 +30°C° 0 mm 5 mps 749 mmHg 35%
17:00 +29°C° 0 mm 4 mps 749 mmHg 39%
18:00 +28°C° 0 mm 3 mps 749 mmHg 42%
19:00 +27°C° 0 mm 2 mps 749 mmHg 47%
20:00 +25°C° 0 mm 2 mps 750 mmHg 52%
21:00 +23°C° 0 mm 1 mps 750 mmHg 57%
22:00 +22°C° 0 mm 1 mps 750 mmHg 59%
23:00 +22°C° 0 mm 1 mps 750 mmHg 61%

2 August, Monday

Time Temperature Precipitation Wind Pressure Humidity
00:00 +21°C° 0 mm 1 mps 750 mmHg 62%
01:00 +21°C° 0 mm 1 mps 750 mmHg 64%
02:00 +19°C° 0 mm 2 mps 750 mmHg 65%
03:00 +19°C° 0 mm 2 mps 750 mmHg 67%
04:00 +20°C° 0 mm 2 mps 750 mmHg 63%
05:00 +21°C° 0 mm 2 mps 750 mmHg 60%
06:00 +23°C° 0 mm 2 mps 751 mmHg 57%
07:00 +26°C° 0 mm 3 mps 751 mmHg 50%
08:00 +28°C° 0 mm 3 mps 751 mmHg 43%
09:00 +30°C° 0 mm 4 mps 751 mmHg 36%
10:00 +33°C° 0 mm 4 mps 750 mmHg 33%
11:00 +34°C° 0 mm 4 mps 750 mmHg 30%
12:00 +35°C° 0 mm 3 mps 750 mmHg 26%
13:00 +36°C° 0 mm 3 mps 749 mmHg 26%
14:00 +36°C° 0 mm 3 mps 749 mmHg 25%
15:00 +36°C° 0 mm 3 mps 749 mmHg 24%
16:00 +35°C° 0 mm 3 mps 749 mmHg 27%
17:00 +34°C° 0 mm 2 mps 749 mmHg 30%
18:00 +32°C° 0 mm 1 mps 749 mmHg 33%
19:00 +31°C° 0 mm 2 mps 749 mmHg 35%
20:00 +29°C° 0 mm 2 mps 748 mmHg 36%
21:00 +27°C° 0 mm 3 mps 748 mmHg 38%
22:00 +26°C° 0 mm 3 mps 748 mmHg 40%
23:00 +26°C° 0 mm 3 mps 748 mmHg 41%

3 August, Tuesday

Time Temperature Precipitation Wind Pressure Humidity
00:00 +25°C° 0 mm 2 mps 748 mmHg 43%
01:00 +25°C° 0 mm 3 mps 748 mmHg 43%
02:00 +24°C° 0 mm 3 mps 748 mmHg 44%
03:00 +24°C° 0 mm 3 mps 748 mmHg 44%
04:00 +25°C° 0 mm 3 mps 748 mmHg 43%
05:00 +26°C° 0 mm 3 mps 748 mmHg 42%
06:00 +27°C° 0 mm 3 mps 748 mmHg 41%
07:00 +29°C° 0 mm 3 mps 748 mmHg 37%
08:00 +32°C° 0 mm 4 mps 748 mmHg 32%
09:00 +34°C° 0 mm 4 mps 748 mmHg 27%
10:00 +36°C° 0 mm 5 mps 748 mmHg 24%
11:00 +39°C° 0 mm 5 mps 748 mmHg 20%
12:00 +41°C° 0 mm 6 mps 747 mmHg 16%
13:00 +41°C° 0 mm 6 mps 747 mmHg 16%
14:00 +40°C° 0 mm 7 mps 747 mmHg 17%
15:00 +40°C° 0 mm 8 mps 747 mmHg 18%
16:00 +39°C° 0 mm 6 mps 747 mmHg 20%
17:00 +37°C° 0 mm 5 mps 747 mmHg 21%
18:00 +36°C° 0 mm 3 mps 746 mmHg 23%
19:00 +33°C° 0.1 mm 3 mps 747 mmHg 28%
20:00 +30°C° 0.1 mm 3 mps 747 mmHg 34%
21:00 +28°C° 0.1 mm 3 mps 747 mmHg 39%
22:00 +27°C° 0 mm 3 mps 747 mmHg 41%
23:00 +26°C° 0 mm 2 mps 747 mmHg 43%

4 August, Wednesday

Time Temperature Precipitation Wind Pressure Humidity
00:00 +25°C° 0 mm 2 mps 747 mmHg 44%
01:00 +24°C° 0 mm 2 mps 748 mmHg 49%
02:00 +24°C° 0 mm 2 mps 748 mmHg 54%
03:00 +23°C° 0 mm 2 mps 748 mmHg 59%
04:00 +24°C° 0 mm 2 mps 748 mmHg 60%
05:00 +24°C° 0 mm 3 mps 748 mmHg 60%
06:00 +25°C° 0 mm 3 mps 748 mmHg 60%
07:00 +27°C° 0 mm 3 mps 749 mmHg 54%
08:00 +29°C° 0 mm 3 mps 749 mmHg 47%
09:00 +31°C° 0 mm 3 mps 749 mmHg 40%
10:00 +33°C° 0 mm 3 mps 749 mmHg 38%
11:00 +34°C° 0 mm 3 mps 749 mmHg 35%
12:00 +36°C° 0 mm 4 mps 749 mmHg 32%
13:00 +36°C° 0 mm 4 mps 749 mmHg 32%
14:00 +35°C° 0 mm 5 mps 749 mmHg 32%
15:00 +35°C° 0 mm 5 mps 749 mmHg 32%
16:00 +34°C° 0 mm 5 mps 749 mmHg 37%
17:00 +32°C° 0 mm 4 mps 749 mmHg 41%
18:00 +30°C° 0 mm 4 mps 749 mmHg 46%
19:00 +28°C° 0 mm 4 mps 750 mmHg 52%
20:00 +26°C° 0 mm 4 mps 750 mmHg 58%
21:00 +23°C° 0 mm 4 mps 750 mmHg 64%
22:00 +23°C° 0.2 mm 4 mps 750 mmHg 69%
23:00 +22°C° 0.2 mm 3 mps 750 mmHg 75%
Show more

We Need Your Consent

Meteoprog and our Service Providers may store and access personal data such as cookies, device identifiers or other similar technologies on your device and process such data to personalise content and ads, as well as provide social media features and to analyse the traffic.

  • Store and/or access information on your device

    Cookies, device identifiers or other information can be stored or accessed on your device for the purposes indicated above.

  • Personalised ads and content, ad and content measurement, audience insights, and products development

    Ads and content can be personalised based on a profile. More data can be added to better personalise ads and content. Ad and content performance can be measured. Insights about the audience who saw the ads and content can be derived. Such data can be used to develop or improve user’s experience, systems and software.

By clicking ‘I Agree’ you will allow the use of indicated cookies, device identifiers, web beacons or other similar technologies. Your settings can be changed in the browser on your device.

For certain purposes, legitimate interests may be relied on, rather than consent. You can read more about this in our Privacy and Cookie Policy.